Hourly Weather Roundup
Issued by NWS

Home | Current Version | Previous Version | Text Only | Print | Product List | Glossary On
Versions: 1 2 3 4 5 6 7 8 9 10 11 12 13 14 15 16 17 18 19 20 21 22 23 24 25 26 27 28 29 30 31 32 33 34 35 36 37 38 39 40 41 42 43 44 45 46 47 48 49 50
254
NZUS43 KILX 231010
HWRCRS

NWR Hourly Weather Roundup
National Weather Service Lincoln IL
400 AM CST THU NOV 23 2017


CITY           SKY/WX    TMP DP  RH WIND       PRES   REMARKS
Champaign      MOCLDY    30  24  78 S8        30.15F WCI  22
Lawrenceville  MOCLDY    30  24  78 CALM      30.21F
Peoria         CLOUDY    33  22  63 S12       30.10F WCI  24
Springfield    MOCLDY    32  23  69 S10       30.14F WCI  24
$$


CITY           SKY/WX    TMP DP  RH WIND       PRES   REMARKS
Bloomington    CLOUDY    30  23  75 S12       30.12F WCI  20
Danville       CLOUDY    29  24  79 SW5       30.14F WCI  24
Decatur        CLOUDY    30  22  72 S8        30.15F WCI  22
Effingham      CLOUDY    29  25  85 CALM      30.20F
Flora          CLOUDY    28  26  91 CALM      30.20F
Galesburg      MOCLDY    32  22  67 S10       30.05F WCI  24
Jacksonville   PTCLDY    31  21  65 S9        30.12F WCI  23
Lacon          CLOUDY    33  20  59 S8        30.08F WCI  26
La Salle       CLOUDY    31  22  68 S12       30.07F WCI  22
Lincoln        CLOUDY    32  25  76 S10       30.12F WCI  24
Litchfield     CLEAR     29  24  81 S7        30.15F WCI  22

CITY           SKY/WX    TMP DP  RH WIND       PRES   REMARKS
Macomb         PTCLDY    31  22  67 S9        30.09F WCI  23
Mattoon        CLEAR     29  21  72 S3        30.16F
Moline         CLOUDY    34  18  52 S9        30.01F WCI  27
Olney          CLOUDY    26  24  93 CALM      30.20F
Paris          CLOUDY    28  25  87 S6        30.18F WCI  22
Pontiac        CLOUDY    32  24  71 S12       30.12F WCI  23
Quincy         CLEAR     32  18  56 S12       30.07F WCI  23
Rantoul        CLOUDY    33  26  76 S3        30.14F
Robinson       CLOUDY    28  25  89 CALM      30.20F
Taylorville    CLOUDY    30  23  74 S8        30.15F WCI  23
Terre Haute    CLOUDY    27  24  89 S3        30.18F
$$


CITY           SKY/WX    TMP DP  RH WIND       PRES   REMARKS
Burlington     CLEAR     32  21  64 S12       30.04F WCI  23
Chicago        CLOUDY    33  19  56 S13       30.06F WCI  24
Des Moines     CLOUDY    32  20  61 SW8       29.97F WCI  25
Evansville     PTCLDY    29  26  89 CALM      30.22F
Indianapolis   CLOUDY    30  25  81 S6        30.17F WCI  24
Kansas City    CLEAR     35  21  56 SW10      30.05F WCI  27
Milwaukee      CLOUDY    33  21  61 SW8       30.02F WCI  26
St Louis       PTCLDY    33  21  61 S5        30.16F WCI  29
$$





USA.gov is the U.S. government's official web portal to all federal, state and local government web resources and services.